Powrót do katalogu

SL-8 R/B

AktywnyLEO
NORAD 4255·ROCKET BODY·🇷🇺 Russia

Wystrzelony Nov 24, 1969 z Plesetsk Cosmodrome

Loading…

Następne Przeloty (najbliższe 24 godziny)

TLE

ŚwieżeSource: Space-Track

Epoka: Sep 14, 2026, 11:12 UTC

1 04255U 69103B   26257.46727708  .00000014  00000-0  73360-4 0  9996
2 04255  74.0157 163.6315 0010607  43.0955 130.0714 13.29657163756206

Śledź SL-8 R/B w czasie rzeczywistym z AllMySat

Download on the App Store